User: anonymous   Login
Location: Austin
(30.3000°N, 97.7500°W)
Time: 08:28:46
(UTC-06:00)
Language:

Cosmos 1862 - Orbit

View from above orbital plane
View from above orbital plane
View from above satellite
View from above satellite

Ground track
Ground track

The orbit data is extracted from the following two-line orbital elements,

1 18152U 87055A   24063.81103754  .00007609  00000-0  41325-3 0  9996
2 18152  82.4897  63.2218 0014231  74.9445 285.3360 15.14288135977843
Epoch (UTC): 03 March 2024 19:27:53
Eccentricity: 0.0014231
inclination: 82.4897°
perigee height: 513 km
apogee height: 533 km
right ascension of ascending node: 63.2218°
argument of perigee: 74.9445°
revolutions per day: 15.14288135
mean anomaly at epoch: 285.3360°
orbit number at epoch: 97784

The dashed part of the orbit path shows where the satellite is in the earth's shadow,  

DLR